Weather reports worldwide

Advertisment
Lampedusa, Italy (16490): temperature & dewpoint: 17.10.2019 05:00:00 - 23.10.2019 05:00:00 (CEST)Lampedusa, Italy (16490): wind speed: 17.10.2019 05:00:00 - 23.10.2019 05:00:00 (CEST)Lampedusa, Italy (16490): wind direction: 17.10.2019 05:00:00 - 23.10.2019 05:00:00 (CEST)Lampedusa, Italy (16490): reduced air pressure: 17.10.2019 05:00:00 - 23.10.2019 05:00:00 (CEST)Lampedusa, Italy (16490): visibility: 17.10.2019 05:00:00 - 23.10.2019 05:00:00 (CEST)Lampedusa, Italy (16490): precipitation: 17.10.2019 05:00:00 - 23.10.2019 05:00:00 (CEST)
Date & Time tt [°C] td [°C] ff [km/h] ff [kn] dd ppp [hPa] vv [km] rr [mm]
23.10.2019 05:00:00 23,2 18,9 31 17 SE 1016,6 10 0,0
23.10.2019 04:00:00 23,0 19,0 31 17 SE - 10 -
23.10.2019 03:00:00 23,0 19,0 35 19 SE - 10 -
23.10.2019 02:00:00 23,3 18,8 37 20 ESE 1017,1 10 -
23.10.2019 01:00:00 23,0 19,0 35 19 ESE - 10 -
23.10.2019 00:00:00 23,0 19,0 35 19 ESE - 10 -
22.10.2019 23:00:00 23,3 18,9 34 18 ESE 1017,8 10 0,0
22.10.2019 22:00:00 23,0 19,0 34 18 ESE - 10 -
22.10.2019 21:00:00 23,0 19,0 29 16 ESE - 10 -
22.10.2019 20:00:00 23,3 18,4 29 16 ESE 1018,1 10 -
22.10.2019 19:00:00 24,0 19,0 31 17 ESE - 10 -
22.10.2019 18:00:00 24,0 20,0 31 17 ESE - 10 -
22.10.2019 17:00:00 24,3 19,5 31 17 ESE 1017,6 10 0,0
22.10.2019 16:00:00 25,0 19,0 31 17 ESE - 10 -
22.10.2019 15:00:00 25,0 19,0 29 16 ESE - 10 -
22.10.2019 14:00:00 24,8 19,2 28 15 SE 1018,8 10 -
22.10.2019 13:00:00 25,0 19,0 28 15 ESE - 10 -
22.10.2019 12:00:00 25,0 20,0 26 14 ESE - 10 -
22.10.2019 11:00:00 25,0 19,0 28 15 ESE - 10 -
22.10.2019 10:00:00 25,0 19,0 24 13 SE - 10 -
22.10.2019 09:00:00 24,0 19,0 26 14 SE - 10 -
22.10.2019 08:00:00 23,8 18,8 26 14 ESE 1018,6 10 -
22.10.2019 07:00:00 24,0 19,0 22 12 SE - 10 -
22.10.2019 06:00:00 24,0 19,0 24 13 SE - 10 -
22.10.2019 05:00:00 23,6 19,1 24 13 SE 1018,7 10 0,0
22.10.2019 04:00:00 24,0 19,0 22 12 SE - 10 -
22.10.2019 03:00:00 24,0 19,0 24 13 SE - 10 -
22.10.2019 02:00:00 - - - - - - - -
22.10.2019 01:00:00 24,0 20,0 26 14 SE - 10 -
22.10.2019 00:00:00 24,0 20,0 28 15 ESE - 10 -
21.10.2019 23:00:00 23,7 19,7 26 14 ESE 1020,2 10 0,0
21.10.2019 22:00:00 24,0 20,0 24 13 ESE - 10 -
21.10.2019 21:00:00 24,0 19,0 26 14 E - 10 -
21.10.2019 20:00:00 23,9 19,1 26 14 ESE 1019,8 10 -
21.10.2019 19:00:00 24,0 19,0 22 12 ESE - 10 -
21.10.2019 18:00:00 25,0 19,0 22 12 ESE - 10 -
21.10.2019 17:00:00 25,0 19,4 21 11 ESE 1019,8 10 0,0
21.10.2019 16:00:00 26,0 20,0 18 10 ESE - 10 -
21.10.2019 15:00:00 26,0 20,0 16 9 SE - 10 -
21.10.2019 14:00:00 25,8 20,0 16 9 SE 1020,9 10 -
21.10.2019 13:00:00 26,0 20,0 22 12 SE - 10 -
21.10.2019 12:00:00 26,0 20,0 21 11 SE - 10 -
21.10.2019 11:00:00 25,3 20,5 21 11 SE 1021,5 10 0,0
21.10.2019 10:00:00 25,0 20,0 22 12 SE - 10 -
21.10.2019 09:00:00 24,0 20,0 22 12 SE - 10 -
21.10.2019 08:00:00 24,0 19,2 24 13 SE 1020,0 10 -
21.10.2019 07:00:00 24,0 20,0 26 14 SE - 10 -
21.10.2019 06:00:00 24,0 20,0 24 13 SE - 10 -
21.10.2019 05:00:00 23,9 19,4 24 13 SE 1019,2 10 0,0
21.10.2019 04:00:00 24,0 20,0 24 13 SSE - 10 -
21.10.2019 03:00:00 24,0 20,0 26 14 SE - 10 -
21.10.2019 02:00:00 23,9 20,6 24 13 SE 1019,3 10 -
21.10.2019 01:00:00 24,0 21,0 26 14 SE - 10 -
21.10.2019 00:00:00 24,0 21,0 28 15 SE - 10 -
20.10.2019 23:00:00 24,2 20,8 26 14 SE 1019,7 10 0,0
20.10.2019 22:00:00 24,0 21,0 28 15 SE - 10 -
20.10.2019 21:00:00 24,0 21,0 28 15 SE - 10 -
20.10.2019 20:00:00 24,4 20,3 28 15 SSE 1018,9 10 -
20.10.2019 19:00:00 25,0 20,0 26 14 SE - 10 -
20.10.2019 18:00:00 25,0 20,0 24 13 SE - 10 -
20.10.2019 17:00:00 25,4 20,3 21 11 SSE 1018,0 10 0,0
20.10.2019 16:00:00 26,0 21,0 26 14 SSE - 10 -
20.10.2019 15:00:00 26,0 21,0 29 16 SSE - 10 -
20.10.2019 14:00:00 25,6 20,8 29 16 SE 1018,1 10 -
20.10.2019 13:00:00 26,0 21,0 29 16 SE - 10 -
20.10.2019 12:00:00 26,0 21,0 26 14 SE - 10 -
20.10.2019 11:00:00 26,0 21,0 24 13 SE - 10 -
20.10.2019 10:00:00 25,0 21,0 21 11 SE - 10 -
20.10.2019 09:00:00 24,0 20,0 24 13 SSE - 10 -
20.10.2019 08:00:00 24,1 20,2 22 12 SSE 1018,5 10 -
20.10.2019 07:00:00 24,0 20,0 24 13 SSE - 10 -
20.10.2019 06:00:00 24,0 20,0 21 11 SSE - 10 -
20.10.2019 05:00:00 24,0 19,5 24 13 SSE 1017,9 10 0,0
20.10.2019 04:00:00 24,0 19,0 18 10 SSE - 10 -
20.10.2019 03:00:00 - - - - - - - -
20.10.2019 02:00:00 24,0 18,6 24 13 SSE 1018,3 - -
20.10.2019 01:00:00 24,0 19,0 26 14 SSE - 10 -
20.10.2019 00:00:00 24,0 20,0 26 14 SSE - 10 -
19.10.2019 23:00:00 24,0 19,0 22 12 SSE - 10 -
19.10.2019 22:00:00 24,0 19,0 21 11 SSE - 10 -
19.10.2019 21:00:00 24,0 19,0 18 10 SSE - 10 -
19.10.2019 20:00:00 24,2 18,9 15 8 SSE 1017,9 10 -
19.10.2019 19:00:00 24,0 19,0 15 8 SSE - 10 -
19.10.2019 18:00:00 25,0 19,0 13 7 SSE - 10 -
19.10.2019 17:00:00 25,2 18,9 13 7 S 1017,2 10 0,0
19.10.2019 16:00:00 26,0 20,0 16 9 S - 10 -
19.10.2019 15:00:00 26,0 20,0 16 9 S - 10 -
19.10.2019 14:00:00 26,0 20,0 18 10 S - 10 -
19.10.2019 13:00:00 26,0 20,0 16 9 S - 10 -
19.10.2019 12:00:00 26,0 20,0 16 9 S - 10 -
19.10.2019 11:00:00 25,5 19,9 15 8 S 1018,9 10 0,0
19.10.2019 10:00:00 25,0 19,0 15 8 S - 10 -
19.10.2019 09:00:00 24,0 19,0 13 7 S - 10 -
19.10.2019 08:00:00 23,6 19,2 11 6 S 1018,0 10 -
19.10.2019 07:00:00 23,0 19,0 9 5 S - 10 -
19.10.2019 06:00:00 23,0 19,0 9 5 SSW - 10 -
19.10.2019 05:00:00 23,4 19,0 11 6 S 1017,3 10 0,0
19.10.2019 04:00:00 23,0 19,0 11 6 SSW - 10 -
19.10.2019 03:00:00 23,0 19,0 11 6 S - 10 -
19.10.2019 02:00:00 23,4 19,2 8 4 SSW 1017,5 10 -
19.10.2019 01:00:00 23,0 20,0 11 6 S - 10 -
19.10.2019 00:00:00 24,0 19,0 9 5 SSW - 10 -
18.10.2019 23:00:00 23,6 19,6 8 4 SSW 1018,3 10 0,0
18.10.2019 22:00:00 24,0 20,0 9 5 SW - 10 -
18.10.2019 21:00:00 24,0 20,0 11 6 SW - 10 -
18.10.2019 20:00:00 23,9 19,6 13 7 SW 1017,7 10 -
18.10.2019 19:00:00 24,0 20,0 15 8 SW - 10 -
18.10.2019 18:00:00 25,0 19,0 16 9 SW - 10 -
18.10.2019 17:00:00 25,1 19,7 16 9 SW 1017,6 10 0,0
18.10.2019 16:00:00 25,0 21,0 22 12 SW - 10 -
18.10.2019 15:00:00 25,0 20,0 16 9 SSW - 10 -
18.10.2019 14:00:00 24,2 20,9 18 10 SSW 1018,1 10 -
18.10.2019 13:00:00 25,0 20,0 18 10 SSW - 10 -
18.10.2019 12:00:00 25,0 19,0 16 9 SSW - 10 -
18.10.2019 11:00:00 25,5 19,5 15 8 SSW 1019,1 10 0,0
18.10.2019 10:00:00 25,0 19,0 13 7 SSW - 10 -
18.10.2019 09:00:00 24,0 19,0 13 7 S - 10 -
18.10.2019 08:00:00 23,6 18,9 11 6 SSW 1018,2 10 -
18.10.2019 07:00:00 23,0 19,0 11 6 SSW - 10 -
18.10.2019 06:00:00 23,0 19,0 11 6 SSW - 10 -
18.10.2019 05:00:00 23,1 18,3 9 5 SW 1018,4 10 0,0
18.10.2019 04:00:00 23,0 18,0 13 7 SSW - 10 -
18.10.2019 03:00:00 23,0 18,0 11 6 S - 10 -
18.10.2019 02:00:00 22,8 17,9 11 6 S 1019,1 10 -
18.10.2019 01:00:00 23,0 18,0 13 7 S - 10 -
18.10.2019 00:00:00 23,0 18,0 11 6 S - 10 -
17.10.2019 23:00:00 22,9 18,1 9 5 S 1019,9 10 0,0
17.10.2019 22:00:00 23,0 18,0 9 5 S - 10 -
17.10.2019 21:00:00 23,0 18,0 5 3 S - 10 -
17.10.2019 20:00:00 22,8 17,5 5 3 S 1019,8 10 -
17.10.2019 19:00:00 23,0 17,0 4 2 - - 10 -
17.10.2019 18:00:00 24,0 17,0 5 3 SW - 10 -
17.10.2019 17:00:00 24,1 17,3 8 4 SW 1019,4 10 0,0
17.10.2019 16:00:00 24,0 17,0 5 3 NE - 10 -
17.10.2019 15:00:00 24,0 17,0 5 3 ENE - 10 -
17.10.2019 14:00:00 24,6 16,8 4 2 N 1020,3 10 -
17.10.2019 13:00:00 24,0 17,0 5 3 NE - 10 -
17.10.2019 12:00:00 24,0 17,0 8 4 NE - 10 -
17.10.2019 11:00:00 23,6 16,3 5 3 NNE 1021,2 10 0,0
17.10.2019 10:00:00 23,0 16,0 9 5 NNW - 10 -
17.10.2019 09:00:00 23,0 17,0 5 3 NNW - 10 -
17.10.2019 08:00:00 21,2 16,3 5 3 NNW 1020,3 10 -
17.10.2019 07:00:00 21,0 16,0 8 4 NNW - 10 -
17.10.2019 06:00:00 21,0 16,0 9 5 N - 10 -
17.10.2019 05:00:00 21,2 16,0 8 4 NNW 1020,1 10 0,0

tt = temperature
td = dewpoint
ff = wind speed
dd = wind direction
ppp = reduced air pressure
vv = visibility
rr = precipitation

Next stations